[[{"header":{"parameterUnit":"m.s-1","parameterCategory":1,"la1":30.2991,"la2":30.254,"lo1":-89.0895,"lo2":-89.0444,"dy":0.0017,"dx":0.0017,"nx":28,"ny":28,"refTime":"2024-03-10T21:00:00:Z","depth":0,"parameterNumber":2,"parameterNumberName":"U-component_of_WINDS"},"data":[0,0,0,0,0,0,0,0,0,0,0,0,0,0,0,0,0,0,0,0,0,0,0,0,0,0,0,0,0,0,0,0,0,0,0,0,0,0,0,0,0,0,0,0,0,0,0,0,0,0,0,0,0,0,0,0,0,0,-1.1063,-1.1065,0,-1.1163,-1.1164,-1.1165,-1.114,-1.1138,-1.1136,-1.1134,-1.1239,-1.1244,-1.1248,0,0,0,0,0,0,0,0,0,0,0,0,0,-1.0856,-1.0859,-1.1063,-1.1065,-1.1066,-1.1162,-1.1164,-1.1165,-1.1141,-1.1138,-1.1136,-1.1134,-1.1238,-1.1243,-1.1249,0,0,0,0,0,0,0,0,0,0,0,0,0,-1.0949,-1.0861,-1.1063,-1.1065,-1.1066,-1.1162,-1.1164,-1.1166,-1.1141,-1.1138,-1.1135,-1.1132,-1.1236,-1.1243,-1.1249,-1.135,0,0,-1.1271,-1.1274,0,0,0,0,0,0,0,0,-1.0944,-1.0957,-1.1064,-1.1065,-1.1067,-1.1136,-1.1129,-1.1228,-1.1142,-1.1113,-1.1134,-1.1131,-1.1207,-1.1217,-1.1242,-1.1355,-1.136,-1.1271,-1.1275,-1.1278,-1.128,0,0,0,0,0,0,0,-1.0938,-1.0953,-1.1103,-1.1065,-1.1067,-1.1062,-1.1072,-1.1147,-1.1175,-1.1115,-1.1113,-1.1125,-1.1208,-1.1235,-1.1244,-1.1361,-1.1271,-1.1277,-1.1281,-1.1284,-1.1564,-1.1567,0,0,0,0,0,0,-1.093,-1.0947,-1.11,-1.1106,-1.0997,-1.1068,-1.1079,-1.1117,-1.1174,-1.118,-1.1128,-1.1124,-1.1225,-1.1236,-1.1248,-1.1371,-1.1278,-1.1285,-1.1289,-1.1561,-1.1565,-1.1568,0,0,0,0,0,0,-1.0925,-1.0943,-1.1096,-1.1026,-1.1045,-1.1075,-1.1117,-1.112,-1.1147,-1.1184,-1.1189,-1.115,-1.1223,-1.1238,-1.1325,-1.1374,-1.1288,-1.1294,-1.1557,-1.1562,-1.1567,-1.1618,0,0,0,0,0,0,-1.0919,-1.0942,-1.098,-1.1027,-1.1049,-1.1171,-1.112,-1.1124,-1.1159,-1.1155,-1.1207,-1.1212,-1.1222,-1.1315,-1.1332,-1.1382,-1.13,-1.1553,-1.1559,-1.1565,-1.1612,-1.1624,-1.1634,0,0,0,0,0,-1.0912,-1.0991,-1.0982,-1.1001,-1.1097,-1.1174,-1.1186,-1.1195,-1.1163,-1.1202,-1.1226,-1.1211,-1.1365,-1.1324,-1.1343,-1.1396,-1.155,-1.1557,-1.1565,-1.1607,-1.1622,-1.1634,0,0,0,0,0,0,-1.095,-1.0997,-1.0988,-1.1084,-1.1125,-1.1169,-1.1219,-1.1209,-1.1261,-1.1255,-1.1264,-1.1276,-1.1365,-1.1389,-1.1342,-1.1497,-1.1453,-1.1465,-1.1479,-1.1493,-1.1504,-1.1498,-1.1305,0,0,0,0,0,-1.097,-1.1027,-1.1065,-1.1147,-1.1167,-1.119,-1.1223,-1.1226,-1.1269,-1.1287,-1.1316,-1.136,-1.1418,-1.1456,-1.1512,-1.1614,-1.1626,-1.166,-1.1671,-1.168,-1.1691,-1.1749,-1.1765,-1.1593,-1.1593,-1.1593,0,0,-1.1011,-1.1044,-1.108,-1.1155,-1.1187,-1.1248,-1.1205,-1.127,-1.1316,-1.1297,-1.1382,-1.1405,-1.1453,-1.1549,-1.1593,-1.1572,-1.1741,-1.169,-1.1697,-1.1703,-1.1758,-1.1774,-1.1789,-1.1598,-1.1597,-1.1596,0,0,-1.1118,-1.1147,-1.1219,-1.1252,-1.13,-1.1314,-1.1331,-1.1377,-1.1391,-1.1476,-1.1463,-1.1517,-1.1617,-1.1653,-1.1684,-1.1803,-1.1793,-1.1821,-1.1881,-1.1936,-1.195,-1.1962,-1.2007,-1.2022,-1.1831,-1.1831,-1.1831,0,-1.1164,-1.1253,-1.1258,-1.1325,-1.1359,-1.1343,-1.1416,-1.1448,-1.1512,-1.1537,-1.1512,-1.1637,-1.1669,-1.1773,-1.1802,-1.1827,-1.1849,-1.1817,-1.1947,-1.196,-1.1971,-1.2014,-1.203,-1.1835,-1.1834,-1.1834,-1.1834,0,-1.1308,-1.1371,-1.1423,-1.1485,-1.1524,-1.1594,-1.161,-1.165,-1.1649,-1.1666,-1.1753,-1.1789,-1.1853,-1.1877,-1.1877,-1.1982,-1.1968,-1.1945,-1.1901,-1.1991,-1.2031,-1.2047,-1.1839,-1.1838,-1.1837,-1.1836,0,0,-1.1445,-1.1507,-1.1526,-1.1554,-1.1606,-1.1655,-1.1724,-1.1785,-1.182,-1.1864,-1.1924,-1.2008,-1.1987,-1.2023,-1.2026,-1.2074,-1.2169,-1.2046,-1.2047,-1.207,-1.2289,-1.2308,-1.2327,-1.216,-1.2163,-1.2166,-1.2286,0,-1.1558,-1.1679,-1.1685,-1.1796,-1.1855,-1.1839,-1.19,-1.1939,-1.1956,-1.2009,-1.2028,-1.2089,-1.2055,-1.2077,-1.2124,-1.2147,-1.2214,-1.2138,-1.2218,-1.2221,-1.2209,-1.2348,-1.2368,-1.248,-1.2302,-1.2304,-1.2306,0,-1.1707,-1.1755,-1.1872,-1.1916,-1.194,-1.1995,-1.2051,-1.2101,-1.2145,-1.2154,-1.2193,-1.2189,-1.2261,-1.2212,-1.2313,-1.2262,-1.2294,-1.231,-1.2315,-1.2325,-1.2271,-1.2364,-1.2516,-1.2533,-1.2331,-1.2329,-1.2327,0,-1.1798,-1.1892,-1.1974,-1.1998,-1.205,-1.2089,-1.2113,-1.2153,-1.219,-1.2239,-1.2263,-1.232,-1.2352,-1.2397,-1.2409,-1.2372,-1.251,-1.2462,-1.2522,-1.2522,-1.2554,-1.2552,-1.2715,-1.257,-1.257,-1.2569,-1.2569,0,-1.1925,-1.1998,-1.2016,-1.2067,-1.2148,-1.2153,-1.2234,-1.2255,-1.2291,-1.2347,-1.2336,-1.2389,-1.24,-1.2455,-1.2465,-1.2548,-1.2561,-1.2572,-1.2575,-1.2575,-1.2574,-1.2599,-1.2592,-1.2574,-1.2573,-1.2572,-1.2571,0,-1.2042,-1.2056,-1.2145,-1.2187,-1.2199,-1.2257,-1.2293,-1.2343,-1.2358,-1.2428,-1.2445,-1.247,-1.2534,-1.255,-1.2626,-1.2633,-1.2732,-1.2725,-1.2717,-1.2718,-1.2777,-1.2773,-1.2964,-1.2991,-1.2825,-1.2827,-1.2828,0,-1.2124,-1.2179,-1.2226,-1.2262,-1.2288,-1.2346,-1.2383,-1.2389,-1.2428,-1.2482,-1.2526,-1.2588,-1.2639,-1.2743,-1.2769,-1.2827,-1.2824,-1.2887,-1.2833,-1.2832,-1.2828,-1.2826,-1.2832,-1.2898,-1.29,-1.2901,-1.2902,0,-1.2269,-1.2273,-1.2326,-1.2381,-1.2425,-1.247,-1.2512,-1.2542,-1.2555,-1.2599,-1.2664,-1.2704,-1.2782,-1.2845,-1.2904,-1.2929,-1.292,-1.2919,-1.2936,-1.2939,-1.2933,-1.2939,-1.2748,-1.2915,-1.2914,-1.2913,-1.2912,-1.2912,-1.2372,-1.2421,-1.2462,-1.2522,-1.2554,-1.2593,-1.2642,-1.2663,-1.2717,-1.2781,-1.2781,-1.2853,-1.2895,-1.2973,-1.3002,-1.3059,-1.304,-1.3064,-1.3071,-1.3078,-1.3084,-1.2921,-1.3069,-1.3069,-1.3068,-1.3068,-1.3068,0,-1.2519,-1.2544,-1.2598,-1.2658,-1.2705,-1.2688,-1.2734,-1.2775,-1.2838,-1.2877,-1.2927,-1.3003,-1.3064,-1.3093,-1.3154,-1.3194,-1.3191,-1.321,-1.3209,-1.3215,-1.3097,-1.3077,-1.3212,-1.3212,-1.3212,-1.3212,-1.3211,-1.3211,-1.2601,-1.2684,-1.2692,-1.2791,-1.2816,-1.2885,-1.2913,-1.295,-1.2982,-1.3066,-1.3117,-1.3135,-1.3171,-1.3234,-1.329,-1.3297,-1.3321,-1.3343,-1.3348,-1.3238,-1.3223,-1.321,-1.3191,-1.3347,-1.3348,-1.3462,-1.3463,-1.3464]},{"header":{"parameterUnit":"m.s-1","parameterCategory":1,"la1":30.2991,"la2":30.254,"lo1":-89.0895,"lo2":-89.0444,"dy":0.0017,"dx":0.0017,"nx":28,"ny":28,"refTime":"2024-03-10T21:00:00:Z","depth":0,"parameterNumber":3,"parameterNumberName":"V-component_of_WINDS"},"data":[0,0,0,0,0,0,0,0,0,0,0,0,0,0,0,0,0,0,0,0,0,0,0,0,0,0,0,0,0,0,0,0,0,0,0,0,0,0,0,0,0,0,0,0,0,0,0,0,0,0,0,0,0,0,0,0,0,0,-4.0736,-4.0737,0,-4.0861,-4.0863,-4.0864,-4.0824,-4.0821,-4.0818,-4.0816,-4.0943,-4.0949,-4.0955,0,0,0,0,0,0,0,0,0,0,0,0,0,-4.0459,-4.0464,-4.0735,-4.0737,-4.0739,-4.0861,-4.0863,-4.0864,-4.0824,-4.0821,-4.0818,-4.0815,-4.0942,-4.0948,-4.0956,0,0,0,0,0,0,0,0,0,0,0,0,0,-4.0581,-4.0466,-4.0735,-4.0733,-4.0734,-4.0861,-4.0863,-4.0865,-4.0825,-4.0821,-4.0817,-4.0813,-4.0939,-4.0948,-4.0957,-4.1092,0,0,-4.0984,-4.0987,0,0,0,0,0,0,0,0,-4.0574,-4.0591,-4.0732,-4.0734,-4.0735,-4.0823,-4.0812,-4.0941,-4.0826,-4.0791,-4.0816,-4.0811,-4.0906,-4.0918,-4.095,-4.1098,-4.1103,-4.0984,-4.099,-4.0994,-4.0996,0,0,0,0,0,0,0,-4.0566,-4.0586,-4.0785,-4.0734,-4.0736,-4.0726,-4.0739,-4.0836,-4.087,-4.0793,-4.0791,-4.0806,-4.0906,-4.0942,-4.0953,-4.1105,-4.0984,-4.0992,-4.0997,-4.1001,-4.137,-4.1374,0,0,0,0,0,0,-4.0556,-4.0579,-4.0781,-4.0789,-4.0643,-4.0734,-4.0748,-4.0799,-4.0868,-4.0875,-4.0809,-4.0804,-4.0929,-4.0943,-4.0957,-4.1121,-4.0993,-4.1002,-4.1007,-4.1365,-4.1371,-4.1376,0,0,0,0,0,0,-4.0551,-4.0575,-4.0776,-4.0683,-4.0708,-4.0743,-4.08,-4.0803,-4.0838,-4.0881,-4.0886,-4.084,-4.0926,-4.0945,-4.1059,-4.1124,-4.1006,-4.1014,-4.136,-4.1367,-4.1373,-4.1448,0,0,0,0,0,0,-4.0543,-4.0573,-4.0626,-4.0685,-4.0713,-4.0877,-4.0804,-4.0809,-4.0854,-4.0848,-4.091,-4.0917,-4.0924,-4.1046,-4.1068,-4.1134,-4.1021,-4.1354,-4.1363,-4.1371,-4.144,-4.1457,-4.1471,0,0,0,0,0,-4.0533,-4.0641,-4.0628,-4.0653,-4.0779,-4.088,-4.0897,-4.0903,-4.0859,-4.0912,-4.0939,-4.0915,-4.1113,-4.1058,-4.1082,-4.1153,-4.135,-4.1361,-4.137,-4.1433,-4.1454,-4.1471,0,0,0,0,0,0,-4.0589,-4.0649,-4.0635,-4.0766,-4.0818,-4.0873,-4.094,-4.0925,-4.099,-4.0982,-4.0987,-4.1001,-4.1118,-4.1146,-4.1083,-4.1287,-4.1225,-4.1241,-4.1265,-4.1284,-4.1299,-4.1291,-4.1028,0,0,0,0,0,-4.0616,-4.0694,-4.0742,-4.0853,-4.088,-4.0905,-4.095,-4.095,-4.1004,-4.1026,-4.1061,-4.1115,-4.1189,-4.1238,-4.1308,-4.1443,-4.1456,-4.1504,-4.1519,-4.1531,-4.1545,-4.1619,-4.164,-4.1409,-4.1409,-4.1408,0,0,-4.0674,-4.0717,-4.0765,-4.0865,-4.0905,-4.0985,-4.0924,-4.1011,-4.107,-4.1039,-4.115,-4.1177,-4.1236,-4.1362,-4.1418,-4.1389,-4.1612,-4.1544,-4.1554,-4.1561,-4.1631,-4.1653,-4.1673,-4.1416,-4.1414,-4.1413,0,0,-4.082,-4.086,-4.0957,-4.0999,-4.1061,-4.1077,-4.11,-4.1157,-4.1175,-4.1285,-4.1264,-4.1333,-4.1461,-4.1505,-4.1543,-4.1704,-4.1685,-4.1727,-4.1808,-4.188,-4.1898,-4.1914,-4.1972,-4.1993,-4.174,-4.174,-4.1741,0,-4.0884,-4.1004,-4.1008,-4.1097,-4.1142,-4.1117,-4.1215,-4.1255,-4.1337,-4.1368,-4.1333,-4.1493,-4.1531,-4.1666,-4.1705,-4.1737,-4.1764,-4.1721,-4.1895,-4.1911,-4.1927,-4.1982,-4.2004,-4.1745,-4.1745,-4.1744,-4.1744,0,-4.108,-4.1163,-4.1233,-4.1314,-4.1366,-4.1458,-4.1476,-4.1528,-4.1524,-4.1544,-4.1656,-4.1701,-4.178,-4.1812,-4.1808,-4.1946,-4.1926,-4.1893,-4.1832,-4.1953,-4.2006,-4.2027,-4.1752,-4.175,-4.1749,-4.1748,0,0,-4.1266,-4.1347,-4.1373,-4.1409,-4.1475,-4.1539,-4.163,-4.1708,-4.1753,-4.181,-4.1886,-4.1994,-4.1965,-4.2008,-4.2009,-4.2072,-4.2197,-4.2031,-4.2033,-4.2061,-4.2352,-4.2377,-4.2402,-4.2183,-4.2187,-4.2191,-4.2347,0,-4.1419,-4.158,-4.1586,-4.1733,-4.181,-4.1787,-4.1866,-4.1915,-4.1935,-4.2003,-4.2024,-4.2102,-4.2056,-4.2082,-4.2143,-4.2169,-4.2256,-4.2157,-4.2255,-4.2258,-4.2242,-4.2429,-4.2456,-4.2602,-4.2368,-4.2371,-4.2374,0,-4.1619,-4.1682,-4.1837,-4.1892,-4.1924,-4.1996,-4.2067,-4.2132,-4.2187,-4.2197,-4.2246,-4.2237,-4.2329,-4.2263,-4.2391,-4.2324,-4.2363,-4.2382,-4.2388,-4.2398,-4.2325,-4.2446,-4.2649,-4.2671,-4.2406,-4.2403,-4.2401,0,-4.1741,-4.1865,-4.1973,-4.2004,-4.2071,-4.2122,-4.2152,-4.2202,-4.2248,-4.231,-4.234,-4.2412,-4.2452,-4.2507,-4.2517,-4.2468,-4.2645,-4.258,-4.2656,-4.2656,-4.2696,-4.2694,-4.291,-4.272,-4.2719,-4.2719,-4.2718,0,-4.1911,-4.2007,-4.2029,-4.2096,-4.2202,-4.2207,-4.2312,-4.2338,-4.2383,-4.2454,-4.2438,-4.2505,-4.2514,-4.2583,-4.2591,-4.2696,-4.2713,-4.2724,-4.2726,-4.2727,-4.2726,-4.2754,-4.2745,-4.2725,-4.2723,-4.2722,-4.2721,0,-4.2066,-4.2085,-4.2202,-4.2255,-4.227,-4.2346,-4.2391,-4.2455,-4.2473,-4.2563,-4.2584,-4.2613,-4.2693,-4.2708,-4.2803,-4.2809,-4.2933,-4.2924,-4.2916,-4.2915,-4.2991,-4.2984,-4.3234,-4.3267,-4.3054,-4.3056,-4.3058,0,-4.2175,-4.2248,-4.2309,-4.2355,-4.2388,-4.2463,-4.251,-4.2517,-4.2567,-4.2634,-4.269,-4.2768,-4.2832,-4.2961,-4.2989,-4.3061,-4.3054,-4.3137,-4.3065,-4.3064,-4.3057,-4.3053,-4.306,-4.3151,-4.3153,-4.3155,-4.3157,0,-4.2366,-4.2371,-4.244,-4.2512,-4.2568,-4.2625,-4.2679,-4.2718,-4.2732,-4.2788,-4.2871,-4.292,-4.3017,-4.3095,-4.3167,-4.3196,-4.318,-4.3179,-4.3201,-4.3203,-4.3196,-4.3202,-4.2955,-4.3174,-4.3172,-4.3171,-4.317,-4.3169,-4.2502,-4.2565,-4.2618,-4.2695,-4.2736,-4.2787,-4.285,-4.2875,-4.2944,-4.3024,-4.3023,-4.3113,-4.3164,-4.3259,-4.3294,-4.3363,-4.3337,-4.3369,-4.3377,-4.3385,-4.3392,-4.3183,-4.3376,-4.3376,-4.3375,-4.3375,-4.3375,0,-4.2692,-4.2725,-4.2795,-4.2872,-4.2932,-4.291,-4.2968,-4.302,-4.31,-4.3149,-4.3212,-4.3306,-4.3382,-4.3416,-4.349,-4.3539,-4.3533,-4.3559,-4.3556,-4.3563,-4.3411,-4.3386,-4.3562,-4.3562,-4.3562,-4.3562,-4.3562,-4.3562,-4.2799,-4.2906,-4.2918,-4.3045,-4.3076,-4.3165,-4.32,-4.3246,-4.3286,-4.3392,-4.3455,-4.3476,-4.3519,-4.3596,-4.3664,-4.3672,-4.3701,-4.373,-4.3735,-4.3592,-4.3574,-4.3555,-4.3531,-4.3736,-4.3736,-4.3881,-4.3882,-4.3883]}]]